Theta_e
290 290 291 292 292 292 292 292 292 292 293 293 293 293 292 292 291 290 290 291 290 289 289 289 289 289 289 289 289 289 289 289 295 286 286 285 284 283 282 281 282 282 282
289 289 290 290 290 291 291 291 291 291 291 291 292 292 291 291 290 290 290 290 289 289 289 288 288 288 288 288 287 287 287 287 289 286 283 283 283 282 281 281 281 282 281
288 288 288 288 288 288 288 289 290 290 290 290 290 290 290 290 290 289 289 289 289 288 288 287 287 287 287 286 286 286 286 286 286 287 283 281 280 280 279 279 280 280 280
286 287 287 287 287 286 286 287 288 289 289 289 289 289 289 289 289 289 288 288 288 287 288 287 287 286 286 286 285 285 285 284 284 284 285 281 280 280 280 281 281 281 281
285 285 286 286 285 284 285 285 285 286 288 288 288 288 288 288 288 287 287 287 288 287 286 286 286 286 286 286 285 285 284 284 283 283 283 281 280 279 280 281 282 282 281
283 284 284 284 283 281 283 284 284 284 285 286 287 287 287 287 287 287 287 286 286 287 286 285 285 285 285 285 285 285 285 284 283 283 283 282 281 281 281 281 281 281 284
282 282 282 282 281 280 282 282 282 283 283 284 285 286 286 286 286 287 287 287 286 286 286 286 285 284 283 284 284 284 284 284 285 283 283 282 282 281 281 281 280 281 281
281 281 281 280 280 279 281 280 280 281 282 283 283 284 286 286 286 286 287 287 287 286 286 285 285 284 282 283 283 284 283 283 283 282 282 282 282 281 281 280 280 280 280
281 281 280 279 278 277 278 278 278 279 281 282 282 283 284 285 286 286 286 286 287 286 285 285 285 284 283 282 283 284 282 281 282 281 280 280 280 280 280 279 279 279 278
280 280 279 277 276 276 276 276 276 277 278 280 281 282 283 283 284 285 286 286 286 287 286 284 284 283 283 282 283 283 282 281 280 280 279 280 280 280 279 279 279 278 277
279 278 277 276 275 274 274 274 274 275 276 278 280 281 282 282 283 284 285 285 286 287 287 285 283 283 283 282 283 282 283 281 280 280 280 280 279 279 280 279 278 276 276
277 276 275 274 273 272 272 272 272 273 275 276 278 280 281 282 282 283 284 285 285 286 287 285 283 281 282 282 283 282 282 281 280 281 280 279 278 277 277 277 275 274 274
274 273 272 271 271 270 270 271 271 272 273 275 278 280 281 282 282 282 283 284 284 285 286 284 282 281 282 282 283 283 282 281 280 280 280 279 278 276 275 274 273 273 273
270 269 269 269 269 268 268 269 270 271 273 274 277 280 281 281 281 281 281 281 283 284 285 283 282 281 281 282 282 284 282 280 280 279 278 277 275 274 273 273 272 272 271
266 266 266 266 266 266 266 267 268 269 270 272 274 276 278 280 281 281 280 280 281 282 283 281 281 281 281 282 282 282 280 278 278 277 276 274 273 272 272 271 271 271 271
263 263 263 263 264 264 264 265 266 267 269 271 273 274 276 278 280 281 282 282 282 282 281 281 281 281 281 282 283 281 279 277 277 275 274 273 272 272 271 271 271 271 271
262 262 262 262 263 263 264 264 265 265 266 269 271 273 275 277 280 283 283 283 282 283 281 281 281 281 282 282 282 278 277 277 274 274 273 272 272 271 271 271 270 270 270
262 262 262 262 262 263 263 264 264 265 266 267 268 270 273 278 281 283 284 283 282 283 283 281 281 281 281 281 277 276 275 273 273 272 272 271 271 270 270 270 270 270 269
262 263 263 263 263 263 263 263 264 265 266 267 267 269 271 274 279 280 282 283 282 283 283 280 280 280 279 277 276 274 273 273 272 271 270 270 269 269 269 269 269 268 268
263 263 264 264 264 264 264 265 265 266 266 267 268 270 271 276 278 279 283 283 282 282 282 280 278 276 276 275 274 272 272 270 270 269 268 268 267 268 268 268 268 268 268
263 264 264 264 264 265 265 266 266 266 267 268 269 271 275 277 278 279 282 282 282 281 277 275 275 274 273 272 271 270 269 268 268 267 267 267 267 267 267 267 267 267 267
264 264 264 265 266 267 268 269 270 269 268 269 271 274 275 276 278 279 276 275 275 274 273 273 274 272 271 270 269 268 268 267 267 267 267 267 266 266 265 266 266 266 267
263 264 264 265 266 267 269 269 270 272 272 273 272 272 271 271 270 270 269 270 271 271 271 271 270 269 269 269 269 268 268 268 269 269 268 267 266 265 265 265 265 265 266
262 263 264 264 265 265 266 267 267 267 267 267 266 266 265 265 265 264 265 266 267 267 267 268 268 269 268 267 268 269 270 269 269 269 268 267 266 266 265 265 265 265 265
261 262 263 263 263 264 264 265 265 265 265 265 264 264 264 263 263 262 263 264 264 265 266 266 267 268 268 268 268 268 268 268 267 267 266 266 266 266 266 266 266 265 265
260 260 261 261 262 262 262 263 263 263 263 263 263 263 262 262 262 262 262 263 264 265 266 267 267 267 267 267 267 268 267 266 266 266 266 266 266 266 266 266 266 265 265
Wind_Speed
23 22 23 23 23 22 17 15 18 21 21 21 24 27 31 33 34 36 38 37 40 40 42 39 39 35 36 35 31 29 28 21 8 8 16 16 21 19 19 18 16 14 11
21 20 20 21 23 22 22 21 17 17 19 24 25 27 29 32 34 36 37 36 37 39 38 38 39 36 37 34 34 33 32 31 16 13 17 18 20 21 18 18 16 16 13
23 22 21 22 23 24 24 23 22 19 18 19 23 25 27 30 32 35 38 39 38 39 39 40 40 38 39 35 35 33 31 31 25 14 12 16 14 17 17 16 15 16 14
19 20 20 21 22 24 24 26 26 26 21 18 23 26 27 29 31 33 36 37 38 39 39 40 42 44 43 38 37 34 31 27 23 20 16 16 17 14 17 17 15 15 12
18 18 20 20 21 25 23 23 25 25 25 23 23 25 29 29 30 32 33 36 37 37 39 42 44 46 48 48 42 36 33 28 23 21 18 14 18 13 20 14 14 11 10
20 19 20 21 23 29 25 25 26 26 25 24 24 24 26 28 28 32 35 35 37 38 39 39 41 46 51 53 53 48 52 42 32 27 23 21 21 19 16 14 11 6 3
20 24 22 20 21 23 23 26 29 27 26 25 24 23 27 28 27 29 34 38 36 40 40 40 39 41 43 45 47 47 41 48 49 46 35 30 23 25 20 16 13 10 7
24 26 25 23 26 25 22 23 23 25 26 27 27 25 25 26 25 28 32 37 41 41 40 40 41 40 43 45 42 40 40 42 40 36 38 31 27 28 24 18 14 10 9
22 21 21 23 27 29 30 30 28 26 27 27 27 29 28 30 24 27 29 32 38 42 37 38 40 39 39 43 43 42 37 36 34 30 27 25 24 22 24 21 16 13 8
24 23 22 20 24 26 29 32 32 29 32 29 30 29 31 35 31 28 27 30 34 34 34 35 41 42 39 42 45 40 36 37 36 31 24 23 25 23 22 20 19 16 11
25 26 26 27 26 27 29 31 32 31 31 33 31 32 32 32 33 30 28 32 34 32 32 32 33 37 39 40 45 41 44 37 38 35 30 28 27 25 26 23 18 18 16
25 26 28 30 30 31 30 32 32 30 30 34 32 33 30 30 30 30 31 34 36 35 33 29 29 30 39 38 43 39 36 35 36 33 31 29 29 25 26 24 20 17 16
31 31 32 33 33 32 32 32 30 30 28 30 27 28 30 27 28 29 32 33 35 41 34 30 27 30 35 41 46 43 39 37 36 32 31 30 28 26 23 19 16 15 15
36 37 36 35 34 33 32 31 30 29 28 27 27 26 28 26 27 24 24 27 33 34 33 28 31 33 36 39 40 41 41 36 33 31 30 26 26 26 23 20 16 15 12
37 37 36 34 33 33 31 30 30 32 32 31 31 29 27 26 27 24 23 23 25 28 24 25 27 29 29 32 32 34 34 30 30 28 28 27 24 24 20 18 14 13 10
33 31 30 31 31 31 32 33 34 39 42 44 47 45 42 45 43 37 32 28 31 27 26 26 25 26 25 29 29 30 30 30 30 29 27 27 24 23 22 18 14 14 13
32 33 32 31 30 30 30 29 25 31 35 37 39 40 42 47 44 38 34 31 30 28 28 26 24 25 25 28 28 26 28 31 31 30 29 28 26 21 21 19 16 14 12
32 34 33 31 30 30 30 30 30 26 20 26 27 32 36 35 35 33 32 28 26 29 27 25 23 25 25 25 23 25 26 28 29 27 26 26 24 23 20 16 15 13 10
32 31 31 31 31 32 32 32 31 29 27 27 28 29 29 31 28 29 31 29 21 21 23 26 24 23 24 24 27 25 29 28 28 25 23 24 23 21 16 14 12 11 9
31 30 31 30 30 30 29 27 27 25 24 23 22 24 26 20 18 20 23 25 21 18 19 22 20 24 25 24 23 24 24 26 26 25 23 22 20 17 14 14 11 9 9
29 29 30 30 28 28 27 26 26 23 21 21 23 25 24 18 17 17 14 17 15 10 19 24 26 27 25 24 25 25 25 25 25 25 25 24 22 18 13 12 10 8 7
26 25 25 25 26 25 25 26 25 21 20 20 21 19 18 17 15 7 10 14 16 19 22 29 30 28 30 30 29 27 27 27 28 29 25 23 20 16 14 12 10 8 8
22 23 22 22 21 23 20 19 18 14 12 10 10 7 5 4 6 9 13 16 21 24 26 28 28 26 25 25 26 28 31 32 33 30 27 24 21 17 15 11 10 9 8
20 19 19 19 19 20 18 18 17 16 14 13 12 11 10 10 11 13 16 16 18 19 19 22 24 26 26 27 28 29 29 28 26 24 23 23 19 16 14 12 10 9 8
21 19 18 18 18 18 19 19 18 17 16 15 14 13 13 13 14 15 17 19 21 22 22 24 27 28 29 28 27 26 24 23 22 22 20 18 16 14 13 11 10 10 12
21 20 19 18 17 18 18 18 19 18 17 16 15 16 15 17 18 20 22 24 27 29 29 28 26 26 25 23 21 20 19 19 18 17 16 15 13 11 10 12 12 13 14
Wind_Direction
9 4 2 1 3 357 344 317 295 286 270 256 247 242 235 229 227 223 224 223 219 217 217 214 217 217 217 215 212 209 208 199 183 181 190 192 196 200 215 232 238 245 249
3 1 0 359 356 358 358 348 328 300 284 270 258 249 241 233 230 227 227 225 225 221 218 217 215 211 215 214 210 206 205 204 191 168 189 194 198 208 216 221 233 236 243
355 356 356 354 353 348 347 349 345 328 303 282 274 254 246 240 233 231 230 229 227 227 222 217 216 211 212 208 210 208 206 204 193 184 172 196 202 207 208 221 222 232 237
349 347 348 349 348 343 343 342 344 341 323 302 278 270 262 251 244 239 235 233 231 229 227 222 219 216 214 208 206 209 201 201 194 183 184 184 198 200 200 201 213 225 224
344 345 342 341 342 341 338 335 334 338 334 326 303 282 270 259 248 242 238 236 235 232 227 224 222 222 217 215 206 204 200 194 196 191 194 190 194 188 204 201 206 220 247
335 333 333 330 331 340 333 330 331 332 331 329 314 294 277 261 252 247 242 234 236 233 228 229 227 218 221 215 215 211 212 195 196 196 196 203 201 199 191 194 191 200 238
313 317 321 320 320 327 323 324 326 324 324 319 313 302 283 274 267 256 246 240 236 233 231 227 224 221 218 213 211 207 206 211 214 205 196 199 198 199 190 187 193 197 211
302 307 311 314 316 317 311 311 313 315 314 311 306 301 289 277 269 256 249 242 240 238 232 230 226 221 216 209 205 202 204 206 206 208 208 200 207 201 196 195 190 202 237
283 287 294 301 308 310 309 310 310 308 306 304 303 301 293 287 273 265 254 244 244 241 239 233 230 225 221 209 203 204 202 203 203 204 200 192 196 185 185 174 179 179 225
283 282 284 283 290 293 298 299 301 300 301 299 294 293 289 282 279 270 260 253 248 243 239 238 232 222 219 208 209 204 202 196 186 187 185 180 180 183 181 187 182 191 196
282 281 282 288 287 289 292 292 295 295 294 292 288 285 281 275 271 263 257 251 248 244 238 230 231 226 220 211 212 209 208 192 184 179 182 181 179 184 189 187 187 195 202
290 283 282 286 288 290 288 287 287 285 284 284 285 282 279 275 267 261 253 245 248 244 239 228 227 219 218 214 213 214 209 192 181 180 179 182 175 174 187 193 199 198 209
298 290 287 288 286 284 282 282 281 280 275 275 276 274 275 277 271 261 256 251 247 248 243 223 216 212 217 213 211 202 202 190 182 180 185 185 178 178 178 178 188 195 216
297 294 294 293 291 287 282 278 274 272 272 269 268 267 270 269 266 261 254 247 250 251 249 213 204 207 209 211 208 200 194 188 186 182 182 173 163 164 158 176 176 189 212
297 296 296 293 291 289 282 278 274 270 268 271 268 271 273 268 263 263 255 247 245 239 231 196 194 198 202 210 200 189 193 177 175 175 165 160 158 153 167 173 167 181 203
297 297 296 294 291 287 286 284 276 275 274 270 267 265 267 265 267 264 261 255 254 245 200 194 197 195 194 199 197 179 183 171 172 165 161 155 156 161 162 164 171 189 201
291 292 291 289 287 285 284 283 287 286 280 276 272 268 265 267 265 259 250 248 252 245 205 201 200 194 191 194 196 171 171 176 165 163 162 159 157 159 157 167 177 188 196
291 288 285 284 283 282 280 279 280 281 285 283 278 277 274 276 263 255 261 230 239 239 211 203 197 190 186 185 168 167 165 158 162 158 155 154 156 158 160 169 181 184 187
295 290 288 286 283 279 278 277 275 276 275 279 284 282 277 273 265 262 267 214 225 232 215 194 191 182 166 166 170 168 163 161 156 154 150 149 150 152 161 175 182 184 188
296 292 290 287 285 283 279 277 276 274 275 274 275 275 278 268 264 268 248 206 213 230 189 178 163 152 161 165 164 160 151 147 144 143 143 147 155 161 164 176 185 188 199
300 298 295 291 286 284 282 277 273 270 270 273 273 273 272 272 268 274 255 190 203 201 150 144 143 150 154 154 153 150 149 142 145 146 150 158 165 166 171 183 182 195 212
308 305 304 301 299 296 293 287 276 264 264 269 273 277 290 290 286 260 103 100 115 132 139 147 157 161 165 163 159 154 152 148 152 158 161 164 167 171 180 186 190 203 222
316 315 316 317 319 321 325 333 343 330 296 322 340 350 9 41 71 98 104 114 135 143 154 161 161 156 165 172 174 167 158 158 164 168 167 170 174 180 183 185 198 213 229
331 333 335 337 341 343 348 352 358 7 16 19 22 30 39 53 70 82 100 115 129 136 149 155 159 159 160 161 159 160 160 161 164 168 175 177 176 179 188 198 213 234 252
341 343 349 353 353 356 357 3 10 17 23 29 33 42 53 64 72 78 90 107 120 127 130 136 138 139 141 142 144 149 153 158 164 172 175 179 183 191 197 213 235 249 258
355 356 354 359 7 10 11 10 11 18 28 37 45 54 61 67 73 79 90 103 111 117 120 123 127 130 133 139 146 153 158 165 171 177 182 186 193 200 214 233 249 255 260